Data supplied by UK-AIR on 6/6/2017
All Data GMT hour ending 
Status: R =Ratified P=Provisional,P*=As supplied
,,Inverness,,,,,,,,,,,,,,,,,,,,,,,
Date,time,"Nitric oxide",status,unit,"Nitrogen dioxide",status,unit,"Nitrogen oxides as nitrogen dioxide",status,unit,"Daily measured PM<sub>10</sub> (uncorrected)",status,unit,"Daily measured PM<sub>2.5</sub> (uncorrected)",status,unit
 
01-01-2016,01:00,3.49785,R,ugm-3,9.34575,R,ugm-3,14.70904,R,ugm-3,,,,,,
01-01-2016,02:00,3.49785,R,ugm-3,7.81448,R,ugm-3,13.17776,R,ugm-3,,,,,,
01-01-2016,03:00,3.51957,R,ugm-3,6.43365,R,ugm-3,11.83025,R,ugm-3,,,,,,
01-01-2016,04:00,2.84759,R,ugm-3,7.11450,R,ugm-3,11.48074,R,ugm-3,,,,,,
01-01-2016,05:00,2.43161,R,ugm-3,5.50561,R,ugm-3,9.23403,R,ugm-3,,,,,,
01-01-2016,06:00,1.85598,R,ugm-3,10.53166,R,ugm-3,13.37746,R,ugm-3,,,,,,
01-01-2016,07:00,1.75963,R,ugm-3,8.48337,R,ugm-3,11.18143,R,ugm-3,,,,,,
01-01-2016,08:00,14.01310,R,ugm-3,37.96360,R,ugm-3,59.45006,R,ugm-3,,,,,,
01-01-2016,09:00,4.86322,R,ugm-3,34.37336,R,ugm-3,41.83020,R,ugm-3,,,,,,
01-01-2016,10:00,5.31069,R,ugm-3,24.90171,R,ugm-3,33.04465,R,ugm-3,,,,,,
01-01-2016,11:00,12.70126,R,ugm-3,34.53449,R,ugm-3,54.00948,R,ugm-3,,,,,,
01-01-2016,12:00,5.21465,R,ugm-3,17.11257,R,ugm-3,25.10826,R,ugm-3,,,,,,
01-01-2016,13:00,10.14180,R,ugm-3,29.62319,R,ugm-3,45.17373,R,ugm-3,,,,,,
01-01-2016,14:00,12.66945,R,ugm-3,40.47328,R,ugm-3,59.89950,R,ugm-3,,,,,,
01-01-2016,15:00,10.26965,R,ugm-3,25.38461,R,ugm-3,41.13118,R,ugm-3,,,,,,
01-01-2016,16:00,8.09435,R,ugm-3,23.57826,R,ugm-3,35.98943,R,ugm-3,,,,,,
01-01-2016,17:00,10.55777,R,ugm-3,28.38724,R,ugm-3,44.57559,R,ugm-3,,,,,,
01-01-2016,18:00,5.85451,R,ugm-3,19.42574,R,ugm-3,28.40254,R,ugm-3,,,,,,
01-01-2016,19:00,4.92684,R,ugm-3,16.95431,R,ugm-3,24.50869,R,ugm-3,,,,,,
01-01-2016,20:00,4.12700,R,ugm-3,13.68824,R,ugm-3,20.01623,R,ugm-3,,,,,,
01-01-2016,21:00,5.11923,R,ugm-3,15.01265,R,ugm-3,22.86203,R,ugm-3,,,,,,
01-01-2016,22:00,2.20741,R,ugm-3,10.09274,R,ugm-3,13.47739,R,ugm-3,,,,,,
01-01-2016,23:00,1.40758,R,ugm-3,11.46831,R,ugm-3,13.62656,R,ugm-3,,,,,,
01-01-2016,24:00,0.51171,R,ugm-3,7.25220,R,ugm-3,8.03680,R,ugm-3,,,,,,
02-01-2016,01:00,0.63945,R,ugm-3,10.53341,R,ugm-3,11.51389,R,ugm-3,,,,,,
02-01-2016,02:00,3.07127,R,ugm-3,22.24556,R,ugm-3,26.95478,R,ugm-3,,,,,,
02-01-2016,03:00,0.73591,R,ugm-3,22.93135,R,ugm-3,24.05973,R,ugm-3,,,,,,
02-01-2016,04:00,0.47990,R,ugm-3,23.82306,R,ugm-3,24.55889,R,ugm-3,,,,,,
02-01-2016,05:00,0.73591,R,ugm-3,21.33442,R,ugm-3,22.46279,R,ugm-3,,,,,,
02-01-2016,06:00,0.47959,R,ugm-3,15.38750,R,ugm-3,16.12285,R,ugm-3,,,,,,
02-01-2016,07:00,0.63955,R,ugm-3,15.79103,R,ugm-3,16.77167,R,ugm-3,,,,,,
02-01-2016,08:00,0.92799,R,ugm-3,18.59380,R,ugm-3,20.01670,R,ugm-3,,,,,,
02-01-2016,09:00,0.95980,R,ugm-3,18.59476,R,ugm-3,20.06643,R,ugm-3,,,,,,
02-01-2016,10:00,3.58349,R,ugm-3,27.74942,R,ugm-3,33.24403,R,ugm-3,,,,,,
02-01-2016,11:00,8.12616,R,ugm-3,36.15916,R,ugm-3,48.61910,R,ugm-3,,,,,,
02-01-2016,12:00,25.72244,R,ugm-3,44.11898,R,ugm-3,83.55952,R,ugm-3,,,,,,
02-01-2016,13:00,18.39612,R,ugm-3,38.78072,R,ugm-3,66.98770,R,ugm-3,,,,,,
02-01-2016,14:00,32.92092,R,ugm-3,49.80389,R,ugm-3,100.28194,R,ugm-3,,,,,,
02-01-2016,15:00,18.04407,R,ugm-3,41.46683,R,ugm-3,69.13401,R,ugm-3,,,,,,
02-01-2016,16:00,16.66861,R,ugm-3,40.38100,R,ugm-3,65.93918,R,ugm-3,,,,,,
02-01-2016,17:00,23.22722,R,ugm-3,44.55073,R,ugm-3,80.16531,R,ugm-3,,,,,,
02-01-2016,18:00,7.35845,R,ugm-3,25.80488,R,ugm-3,37.08768,R,ugm-3,,,,,,
02-01-2016,19:00,8.35036,R,ugm-3,31.67148,R,ugm-3,44.47519,R,ugm-3,,,,,,
02-01-2016,20:00,36.05633,R,ugm-3,52.58323,R,ugm-3,107.86883,R,ugm-3,,,,,,
02-01-2016,21:00,43.54293,R,ugm-3,55.42999,R,ugm-3,122.19488,R,ugm-3,,,,,,
02-01-2016,22:00,1.63147,R,ugm-3,14.32032,R,ugm-3,16.82187,R,ugm-3,,,,,,
02-01-2016,23:00,3.42353,R,ugm-3,16.06548,R,ugm-3,21.31481,R,ugm-3,,,,,,
02-01-2016,24:00,0.47990,R,ugm-3,9.89671,R,ugm-3,10.63254,R,ugm-3,,,,,,
03-01-2016,01:00,0.55463,R,ugm-3,9.47580,R,ugm-3,10.32623,R,ugm-3,,,,,,
03-01-2016,02:00,0.51181,R,ugm-3,10.00748,R,ugm-3,10.79224,R,ugm-3,,,,,,
03-01-2016,03:00,0.47959,R,ugm-3,23.99709,R,ugm-3,24.73245,R,ugm-3,,,,,,
03-01-2016,04:00,0.44747,R,ugm-3,26.14435,R,ugm-3,26.83046,R,ugm-3,,,,,,
03-01-2016,05:00,0.54382,R,ugm-3,22.54933,R,ugm-3,23.38318,R,ugm-3,,,,,,
03-01-2016,06:00,0.41566,R,ugm-3,18.04922,R,ugm-3,18.68656,R,ugm-3,,,,,,
03-01-2016,07:00,1.05553,R,ugm-3,16.96866,R,ugm-3,18.58711,R,ugm-3,,,,,,
03-01-2016,08:00,1.50362,R,ugm-3,17.57970,R,ugm-3,19.88522,R,ugm-3,,,,,,
03-01-2016,09:00,1.31185,R,ugm-3,16.67509,R,ugm-3,18.68656,R,ugm-3,,,,,,
03-01-2016,10:00,2.68762,R,ugm-3,17.81303,R,ugm-3,21.93398,R,ugm-3,,,,,,
03-01-2016,11:00,2.68762,R,ugm-3,16.56368,R,ugm-3,20.68464,R,ugm-3,,,,,,
03-01-2016,12:00,2.78304,R,ugm-3,14.66935,R,ugm-3,18.93662,R,ugm-3,,,,,,
03-01-2016,13:00,5.34281,R,ugm-3,18.13863,R,ugm-3,26.33082,R,ugm-3,,,,,,
03-01-2016,14:00,1.79175,R,ugm-3,14.29020,R,ugm-3,17.03751,R,ugm-3,,,,,,
03-01-2016,15:00,2.07956,R,ugm-3,13.09919,R,ugm-3,16.28781,R,ugm-3,,,,,,
03-01-2016,16:00,3.13540,R,ugm-3,14.52878,R,ugm-3,19.33633,R,ugm-3,,,,,,
03-01-2016,17:00,3.07116,R,ugm-3,14.57755,R,ugm-3,19.28661,R,ugm-3,,,,,,
03-01-2016,18:00,2.87908,R,ugm-3,13.42288,R,ugm-3,17.83741,R,ugm-3,,,,,,
03-01-2016,19:00,1.40758,R,ugm-3,11.08246,R,ugm-3,13.24072,R,ugm-3,,,,,,
03-01-2016,20:00,2.01564,R,ugm-3,12.29833,R,ugm-3,15.38893,R,ugm-3,,,,,,
03-01-2016,21:00,1.11976,R,ugm-3,10.27443,R,ugm-3,11.99138,R,ugm-3,,,,,,
03-01-2016,22:00,0.67167,R,ugm-3,10.26152,R,ugm-3,11.29140,R,ugm-3,,,,,,
03-01-2016,23:00,1.02403,R,ugm-3,10.17115,R,ugm-3,11.74132,R,ugm-3,,,,,,
03-01-2016,24:00,0.63987,R,ugm-3,9.06190,R,ugm-3,10.04302,R,ugm-3,,,,,,
04-01-2016,01:00,0.21370,R,ugm-3,7.73351,R,ugm-3,8.06119,R,ugm-3,,,,,,
04-01-2016,02:00,0.25570,R,ugm-3,6.86906,R,ugm-3,7.26113,R,ugm-3,,,,,,
04-01-2016,03:00,0.28781,R,ugm-3,10.50106,R,ugm-3,10.94237,R,ugm-3,,,,,,
04-01-2016,04:00,0.31993,R,ugm-3,17.74657,R,ugm-3,18.23712,R,ugm-3,,,,,,
04-01-2016,05:00,0.44778,R,ugm-3,17.85080,R,ugm-3,18.53738,R,ugm-3,,,,,,
04-01-2016,06:00,0.76740,R,ugm-3,19.00882,R,ugm-3,20.18548,R,ugm-3,,,,,,
04-01-2016,07:00,1.66359,R,ugm-3,20.28302,R,ugm-3,22.83382,R,ugm-3,,,,,,
04-01-2016,08:00,1.85536,R,ugm-3,19.28948,R,ugm-3,22.13432,R,ugm-3,,,,,,
04-01-2016,09:00,2.81547,R,ugm-3,19.96554,R,ugm-3,24.28253,R,ugm-3,,,,,,
04-01-2016,10:00,2.68731,R,ugm-3,18.16349,R,ugm-3,22.28397,R,ugm-3,,,,,,
04-01-2016,11:00,3.87100,R,ugm-3,19.24644,R,ugm-3,25.18189,R,ugm-3,,,,,,
04-01-2016,12:00,4.67083,R,ugm-3,21.01790,R,ugm-3,28.17973,R,ugm-3,,,,,,
04-01-2016,13:00,5.88694,R,ugm-3,22.25050,R,ugm-3,31.27703,R,ugm-3,,,,,,
04-01-2016,14:00,2.75154,R,ugm-3,18.26485,R,ugm-3,22.48383,R,ugm-3,,,,,,
04-01-2016,15:00,4.28697,R,ugm-3,22.35617,R,ugm-3,28.92943,R,ugm-3,,,,,,
04-01-2016,16:00,3.10328,R,ugm-3,18.17544,R,ugm-3,22.93374,R,ugm-3,,,,,,
04-01-2016,17:00,2.30345,R,ugm-3,18.00284,R,ugm-3,21.53475,R,ugm-3,,,,,,
04-01-2016,18:00,1.69539,R,ugm-3,14.73773,R,ugm-3,17.33729,R,ugm-3,,,,,,
04-01-2016,19:00,1.31185,R,ugm-3,12.92802,R,ugm-3,14.93949,R,ugm-3,,,,,,
04-01-2016,20:00,1.18369,R,ugm-3,10.72578,R,ugm-3,12.54074,R,ugm-3,,,,,,
04-01-2016,21:00,1.02372,R,ugm-3,10.92181,R,ugm-3,12.49149,R,ugm-3,,,,,,
04-01-2016,22:00,0.67198,R,ugm-3,10.01194,R,ugm-3,11.04230,R,ugm-3,,,,,,
04-01-2016,23:00,0.47959,R,ugm-3,7.60888,R,ugm-3,8.34424,R,ugm-3,,,,,,
04-01-2016,24:00,0.41598,R,ugm-3,6.75686,R,ugm-3,7.39468,R,ugm-3,,,,,,
05-01-2016,01:00,0.21329,R,ugm-3,6.00143,R,ugm-3,6.32846,R,ugm-3,,,,,,
05-01-2016,02:00,0.29852,R,ugm-3,5.27149,R,ugm-3,5.72921,R,ugm-3,,,,,,
05-01-2016,03:00,0.12816,R,ugm-3,6.84866,R,ugm-3,7.04517,R,ugm-3,,,,,,
05-01-2016,04:00,0.25601,R,ugm-3,11.29857,R,ugm-3,11.69111,R,ugm-3,,,,,,
05-01-2016,05:00,0.35205,R,ugm-3,13.40041,R,ugm-3,13.94021,R,ugm-3,,,,,,
05-01-2016,06:00,0.48052,R,ugm-3,12.95336,R,ugm-3,13.69015,R,ugm-3,,,,,,
05-01-2016,07:00,0.57656,R,ugm-3,14.10564,R,ugm-3,14.98970,R,ugm-3,,,,,,
05-01-2016,08:00,1.15282,R,ugm-3,19.41713,R,ugm-3,21.18476,R,ugm-3,,,,,,
05-01-2016,09:00,1.66515,R,ugm-3,21.92968,R,ugm-3,24.48287,R,ugm-3,,,,,,
05-01-2016,10:00,1.85754,R,ugm-3,21.03463,R,ugm-3,23.88282,R,ugm-3,,,,,,
05-01-2016,11:00,2.20959,R,ugm-3,24.29210,R,ugm-3,27.68009,R,ugm-3,,,,,,
05-01-2016,12:00,2.08143,R,ugm-3,24.23855,R,ugm-3,27.43003,R,ugm-3,,,,,,
05-01-2016,13:00,6.53305,R,ugm-3,28.85532,R,ugm-3,38.87252,R,ugm-3,,,,,,
05-01-2016,14:00,3.29880,R,ugm-3,25.91963,R,ugm-3,30.97772,R,ugm-3,,,,,,
05-01-2016,15:00,5.09179,R,ugm-3,31.31432,R,ugm-3,39.12162,R,ugm-3,,,,,,
05-01-2016,16:00,2.69011,R,ugm-3,24.00522,R,ugm-3,28.13001,R,ugm-3,,,,,,
05-01-2016,17:00,1.72876,R,ugm-3,19.13313,R,ugm-3,21.78385,R,ugm-3,,,,,,
05-01-2016,18:00,2.81827,R,ugm-3,21.95980,R,ugm-3,26.28110,R,ugm-3,,,,,,
05-01-2016,19:00,2.40168,R,ugm-3,23.84840,R,ugm-3,27.53092,R,ugm-3,,,,,,
05-01-2016,20:00,1.47337,R,ugm-3,15.77765,R,ugm-3,18.03679,R,ugm-3,,,,,,
05-01-2016,21:00,0.80077,R,ugm-3,11.61318,R,ugm-3,12.84100,R,ugm-3,,,,,,
05-01-2016,22:00,0.64080,R,ugm-3,10.40974,R,ugm-3,11.39228,R,ugm-3,,,,,,
05-01-2016,23:00,0.57656,R,ugm-3,11.70689,R,ugm-3,12.59094,R,ugm-3,,,,,,
05-01-2016,24:00,0.51264,R,ugm-3,9.70594,R,ugm-3,10.49198,R,ugm-3,,,,,,
06-01-2016,01:00,0.42699,R,ugm-3,10.00493,R,ugm-3,10.65964,R,ugm-3,,,,,,
06-01-2016,02:00,0.12806,R,ugm-3,8.19698,R,ugm-3,8.39333,R,ugm-3,,,,,,
06-01-2016,03:00,0.16028,R,ugm-3,8.24766,R,ugm-3,8.49341,R,ugm-3,,,,,,
06-01-2016,04:00,0.16028,R,ugm-3,10.99592,R,ugm-3,11.24168,R,ugm-3,,,,,,
06-01-2016,05:00,1.50518,R,ugm-3,21.87470,R,ugm-3,24.18261,R,ugm-3,,,,,,
06-01-2016,06:00,12.55345,R,ugm-3,44.05635,R,ugm-3,63.30471,R,ugm-3,,,,,,
06-01-2016,07:00,71.83107,R,ugm-3,68.73238,R,ugm-3,178.87182,R,ugm-3,,,,,,
06-01-2016,08:00,165.27816,R,ugm-3,93.77657,R,ugm-3,347.19955,R,ugm-3,,,,,,
06-01-2016,09:00,120.98872,R,ugm-3,90.33789,R,ugm-3,275.85135,R,ugm-3,,,,,,
06-01-2016,10:00,19.85483,R,ugm-3,62.13952,R,ugm-3,92.58317,R,ugm-3,,,,,,
06-01-2016,11:00,8.29423,R,ugm-3,48.33844,R,ugm-3,61.05608,R,ugm-3,,,,,,
06-01-2016,12:00,11.69967,R,ugm-3,50.14511,R,ugm-3,68.08436,R,ugm-3,,,,,,
06-01-2016,13:00,26.32396,R,ugm-3,53.31907,R,ugm-3,93.68190,R,ugm-3,,,,,,
06-01-2016,14:00,17.70948,R,ugm-3,41.34634,R,ugm-3,68.50049,R,ugm-3,,,,,,
06-01-2016,15:00,13.67446,R,ugm-3,34.39249,R,ugm-3,55.35970,R,ugm-3,,,,,,
06-01-2016,16:00,16.97295,R,ugm-3,41.32578,R,ugm-3,67.35060,R,ugm-3,,,,,,
06-01-2016,17:00,22.19290,R,ugm-3,52.55980,R,ugm-3,86.58844,R,ugm-3,,,,,,
06-01-2016,18:00,17.42104,R,ugm-3,51.88087,R,ugm-3,78.59275,R,ugm-3,,,,,,
06-01-2016,19:00,5.28356,R,ugm-3,30.42070,R,ugm-3,38.52205,R,ugm-3,,,,,,
06-01-2016,20:00,5.66867,R,ugm-3,25.98370,R,ugm-3,34.67554,R,ugm-3,,,,,,
06-01-2016,21:00,1.66546,R,ugm-3,13.58497,R,ugm-3,16.13863,R,ugm-3,,,,,,
06-01-2016,22:00,1.37702,R,ugm-3,10.52975,R,ugm-3,12.64115,R,ugm-3,,,,,,
06-01-2016,23:00,0.70473,R,ugm-3,7.21299,R,ugm-3,8.29356,R,ugm-3,,,,,,
06-01-2016,24:00,1.02497,R,ugm-3,9.22064,R,ugm-3,10.79224,R,ugm-3,,,,,,
07-01-2016,01:00,0.34134,R,ugm-3,6.33866,R,ugm-3,6.86205,R,ugm-3,,,,,,
07-01-2016,02:00,0.38417,R,ugm-3,5.20646,R,ugm-3,5.79551,R,ugm-3,,,,,,
07-01-2016,03:00,0.38448,R,ugm-3,7.75375,R,ugm-3,8.34328,R,ugm-3,,,,,,
07-01-2016,04:00,0.31993,R,ugm-3,13.04994,R,ugm-3,13.54050,R,ugm-3,,,,,,
07-01-2016,05:00,0.73653,R,ugm-3,15.55867,R,ugm-3,16.68800,R,ugm-3,,,,,,
07-01-2016,06:00,2.72223,R,ugm-3,23.05614,R,ugm-3,27.23018,R,ugm-3,,,,,,
07-01-2016,07:00,2.69011,R,ugm-3,24.60479,R,ugm-3,28.72958,R,ugm-3,,,,,,
07-01-2016,08:00,3.49088,R,ugm-3,25.42525,R,ugm-3,30.77786,R,ugm-3,,,,,,
07-01-2016,09:00,17.77371,R,ugm-3,38.15055,R,ugm-3,65.40320,R,ugm-3,,,,,,
07-01-2016,10:00,10.92011,R,ugm-3,33.46971,R,ugm-3,50.21364,R,ugm-3,,,,,,
07-01-2016,11:00,16.78086,R,ugm-3,36.72526,R,ugm-3,62.45556,R,ugm-3,,,,,,
07-01-2016,12:00,22.38529,R,ugm-3,43.91961,R,ugm-3,78.24324,R,ugm-3,,,,,,
07-01-2016,13:00,31.41575,R,ugm-3,46.91171,R,ugm-3,95.08185,R,ugm-3,,,,,,
07-01-2016,14:00,23.63415,R,ugm-3,48.45080,R,ugm-3,84.68933,R,ugm-3,,,,,,
07-01-2016,15:00,21.96901,R,ugm-3,52.00279,R,ugm-3,85.68813,R,ugm-3,,,,,,
07-01-2016,16:00,114.26297,R,ugm-3,97.90327,R,ugm-3,273.10404,R,ugm-3,,,,,,
07-01-2016,17:00,57.93178,R,ugm-3,56.21794,R,ugm-3,145.04543,R,ugm-3,,,,,,
07-01-2016,18:00,44.96236,R,ugm-3,50.77305,R,ugm-3,119.71437,R,ugm-3,,,,,,
07-01-2016,19:00,31.38394,R,ugm-3,37.86702,R,ugm-3,85.98839,R,ugm-3,,,,,,
07-01-2016,20:00,24.88332,R,ugm-3,37.29232,R,ugm-3,75.44621,R,ugm-3,,,,,,
07-01-2016,21:00,16.01221,R,ugm-3,25.61172,R,ugm-3,50.16344,R,ugm-3,,,,,,
07-01-2016,22:00,10.66410,R,ugm-3,20.77166,R,ugm-3,37.12306,R,ugm-3,,,,,,
07-01-2016,23:00,17.70948,R,ugm-3,35.40133,R,ugm-3,62.55548,R,ugm-3,,,,,,
07-01-2016,24:00,6.21280,R,ugm-3,11.70833,R,ugm-3,21.23449,R,ugm-3,,,,,,
08-01-2016,01:00,2.86048,R,ugm-3,6.53948,R,ugm-3,10.92548,R,ugm-3,,,,,,
08-01-2016,02:00,1.62274,R,ugm-3,5.03944,R,ugm-3,7.52760,R,ugm-3,,,,,,
08-01-2016,03:00,1.18462,R,ugm-3,2.83002,R,ugm-3,4.64642,R,ugm-3,,,,,,
08-01-2016,04:00,1.05678,R,ugm-3,4.17547,R,ugm-3,5.79583,R,ugm-3,,,,,,
08-01-2016,05:00,2.59376,R,ugm-3,9.56298,R,ugm-3,13.54002,R,ugm-3,,,,,,
08-01-2016,06:00,8.55055,R,ugm-3,18.56655,R,ugm-3,31.67722,R,ugm-3,,,,,,
08-01-2016,07:00,28.14969,R,ugm-3,38.07931,R,ugm-3,81.24157,R,ugm-3,,,,,,
08-01-2016,08:00,114.61502,R,ugm-3,71.38167,R,ugm-3,247.12225,R,ugm-3,,,,,,
08-01-2016,09:00,196.05342,R,ugm-3,100.84995,R,ugm-3,401.46100,R,ugm-3,,,,,,
08-01-2016,10:00,60.65433,R,ugm-3,57.29037,R,ugm-3,150.29238,R,ugm-3,,,,,,
08-01-2016,11:00,61.67930,R,ugm-3,58.31691,R,ugm-3,152.89051,R,ugm-3,,,,,,
08-01-2016,12:00,68.18054,R,ugm-3,60.68984,R,ugm-3,165.23187,R,ugm-3,,,,,,
08-01-2016,13:00,50.47044,R,ugm-3,47.82302,R,ugm-3,125.20994,R,ugm-3,,,,,,
08-01-2016,14:00,14.60308,R,ugm-3,31.21965,R,ugm-3,53.61072,R,ugm-3,,,,,,
08-01-2016,15:00,43.61746,R,ugm-3,53.88421,R,ugm-3,120.76338,R,ugm-3,,,,,,
08-01-2016,16:00,211.07278,R,ugm-3,103.50259,R,ugm-3,427.14301,R,ugm-3,,,,,,
08-01-2016,17:00,124.57502,R,ugm-3,77.34389,R,ugm-3,268.35626,R,ugm-3,,,,,,
08-01-2016,18:00,137.32056,R,ugm-3,76.13854,R,ugm-3,286.69379,R,ugm-3,,,,,,
08-01-2016,19:00,119.73924,R,ugm-3,71.36924,R,ugm-3,254.96685,R,ugm-3,,,,,,
08-01-2016,20:00,75.28952,R,ugm-3,56.38385,R,ugm-3,171.82617,R,ugm-3,,,,,,
08-01-2016,21:00,77.40307,R,ugm-3,60.38814,R,ugm-3,179.07120,R,ugm-3,,,,,,
08-01-2016,22:00,38.33327,R,ugm-3,46.99730,R,ugm-3,105.77416,R,ugm-3,,,,,,
08-01-2016,23:00,19.50278,R,ugm-3,37.14792,R,ugm-3,67.05177,R,ugm-3,,,,,,
08-01-2016,24:00,8.10246,R,ugm-3,25.59929,R,ugm-3,38.02289,R,ugm-3,,,,,,
09-01-2016,01:00,8.92443,R,ugm-3,27.15368,R,ugm-3,40.83761,R,ugm-3,,,,,,
09-01-2016,02:00,8.96684,R,ugm-3,24.88991,R,ugm-3,38.63888,R,ugm-3,,,,,,
09-01-2016,03:00,3.68297,R,ugm-3,11.74036,R,ugm-3,17.38749,R,ugm-3,,,,,,
09-01-2016,04:00,1.76150,R,ugm-3,11.28901,R,ugm-3,13.98994,R,ugm-3,,,,,,
09-01-2016,05:00,6.21280,R,ugm-3,16.70521,R,ugm-3,26.23137,R,ugm-3,,,,,,
09-01-2016,06:00,8.77476,R,ugm-3,19.67150,R,ugm-3,33.12593,R,ugm-3,,,,,,
09-01-2016,07:00,17.32531,R,ugm-3,28.14531,R,ugm-3,54.71041,R,ugm-3,,,,,,
09-01-2016,08:00,35.29079,R,ugm-3,41.06950,R,ugm-3,95.18130,R,ugm-3,,,,,,
09-01-2016,09:00,21.13612,R,ugm-3,33.94353,R,ugm-3,66.35180,R,ugm-3,,,,,,
09-01-2016,10:00,47.71609,R,ugm-3,54.64395,R,ugm-3,127.80759,R,ugm-3,,,,,,
09-01-2016,11:00,61.74322,R,ugm-3,62.21554,R,ugm-3,156.88716,R,ugm-3,,,,,,
09-01-2016,12:00,94.66383,R,ugm-3,73.94299,R,ugm-3,219.09218,R,ugm-3,,,,,,
09-01-2016,13:00,58.63651,R,ugm-3,59.08525,R,ugm-3,148.99331,R,ugm-3,,,,,,
09-01-2016,14:00,74.39271,R,ugm-3,71.19998,R,ugm-3,185.26722,R,ugm-3,,,,,,
09-01-2016,15:00,97.57846,R,ugm-3,74.56981,R,ugm-3,224.18803,R,ugm-3,,,,,,
09-01-2016,16:00,32.56887,R,ugm-3,61.38169,R,ugm-3,111.31993,R,ugm-3,,,,,,
09-01-2016,17:00,54.82601,R,ugm-3,65.27793,R,ugm-3,149.34330,R,ugm-3,,,,,,
09-01-2016,18:00,7.65406,R,ugm-3,38.02863,R,ugm-3,49.76468,R,ugm-3,,,,,,
09-01-2016,19:00,4.73974,R,ugm-3,22.56081,R,ugm-3,29.82831,R,ugm-3,,,,,,
09-01-2016,20:00,25.20326,R,ugm-3,41.44818,R,ugm-3,80.09263,R,ugm-3,,,,,,
09-01-2016,21:00,30.80738,R,ugm-3,44.89594,R,ugm-3,92.13325,R,ugm-3,,,,,,
09-01-2016,22:00,7.65375,R,ugm-3,23.09009,R,ugm-3,34.82567,R,ugm-3,,,,,,
09-01-2016,23:00,11.72088,R,ugm-3,34.49098,R,ugm-3,52.46274,R,ugm-3,,,,,,
09-01-2016,24:00,5.95679,R,ugm-3,25.74129,R,ugm-3,34.87492,R,ugm-3,,,,,,
10-01-2016,01:00,0.34176,R,ugm-3,10.06868,R,ugm-3,10.59270,R,ugm-3,,,,,,
10-01-2016,02:00,6.53294,R,ugm-3,24.82425,R,ugm-3,34.84129,R,ugm-3,,,,,,
10-01-2016,03:00,0.44840,R,ugm-3,8.20606,R,ugm-3,8.89360,R,ugm-3,,,,,,
10-01-2016,04:00,0.19208,R,ugm-3,3.70212,R,ugm-3,3.99665,R,ugm-3,,,,,,
10-01-2016,05:00,0.31993,R,ugm-3,3.65622,R,ugm-3,4.14678,R,ugm-3,,,,,,
10-01-2016,06:00,0.41629,R,ugm-3,10.10374,R,ugm-3,10.74203,R,ugm-3,,,,,,
10-01-2016,07:00,1.63334,R,ugm-3,14.73390,R,ugm-3,17.23832,R,ugm-3,,,,,,
10-01-2016,08:00,4.25922,R,ugm-3,27.04466,R,ugm-3,33.57537,R,ugm-3,,,,,,
10-01-2016,09:00,1.31310,R,ugm-3,23.36884,R,ugm-3,25.38222,R,ugm-3,,,,,,
10-01-2016,10:00,2.04931,R,ugm-3,25.53666,R,ugm-3,28.67889,R,ugm-3,,,,,,
10-01-2016,11:00,14.44311,R,ugm-3,35.76279,R,ugm-3,57.90859,R,ugm-3,,,,,,
10-01-2016,12:00,18.09365,R,ugm-3,43.30569,R,ugm-3,71.04890,R,ugm-3,,,,,,
10-01-2016,13:00,27.31712,R,ugm-3,37.90766,R,ugm-3,79.79333,R,ugm-3,,,,,,
10-01-2016,14:00,55.62646,R,ugm-3,62.95042,R,ugm-3,148.24313,R,ugm-3,,,,,,
10-01-2016,15:00,55.53042,R,ugm-3,65.29705,R,ugm-3,150.44251,R,ugm-3,,,,,,
10-01-2016,16:00,100.01257,R,ugm-3,89.87411,R,ugm-3,243.22458,R,ugm-3,,,,,,
10-01-2016,17:00,98.85944,R,ugm-3,88.09501,R,ugm-3,239.67737,R,ugm-3,,,,,,
10-01-2016,18:00,72.15069,R,ugm-3,68.74147,R,ugm-3,179.37098,R,ugm-3,,,,,,
10-01-2016,19:00,43.61715,R,ugm-3,51.93585,R,ugm-3,118.81454,R,ugm-3,,,,,,
10-01-2016,20:00,34.36187,R,ugm-3,39.29566,R,ugm-3,91.98312,R,ugm-3,,,,,,
10-01-2016,21:00,17.48528,R,ugm-3,34.69514,R,ugm-3,61.50552,R,ugm-3,,,,,,
10-01-2016,22:00,35.06659,R,ugm-3,41.76326,R,ugm-3,95.53129,R,ugm-3,,,,,,
10-01-2016,23:00,12.16928,R,ugm-3,30.65546,R,ugm-3,49.31477,R,ugm-3,,,,,,
10-01-2016,24:00,9.79941,R,ugm-3,22.24811,R,ugm-3,37.27367,R,ugm-3,,,,,,
11-01-2016,01:00,3.84293,R,ugm-3,13.29443,R,ugm-3,19.18684,R,ugm-3,,,,,,
11-01-2016,02:00,3.37312,R,ugm-3,12.88133,R,ugm-3,18.05336,R,ugm-3,,,,,,
11-01-2016,03:00,3.49088,R,ugm-3,11.53524,R,ugm-3,16.88785,R,ugm-3,,,,,,
11-01-2016,04:00,4.16286,R,ugm-3,10.00524,R,ugm-3,16.38821,R,ugm-3,,,,,,
11-01-2016,05:00,5.44415,R,ugm-3,9.34017,R,ugm-3,17.68776,R,ugm-3,,,,,,
11-01-2016,06:00,3.65085,R,ugm-3,8.34137,R,ugm-3,13.93926,R,ugm-3,,,,,,
11-01-2016,07:00,29.87876,R,ugm-3,30.48190,R,ugm-3,76.29536,R,ugm-3,,,,,,
11-01-2016,08:00,24.88332,R,ugm-3,37.99133,R,ugm-3,76.14523,R,ugm-3,,,,,,
11-01-2016,09:00,42.65673,R,ugm-3,40.66740,R,ugm-3,106.07347,R,ugm-3,,,,,,
11-01-2016,10:00,28.34146,R,ugm-3,32.18929,R,ugm-3,75.64559,R,ugm-3,,,,,,
11-01-2016,11:00,23.92228,R,ugm-3,31.77045,R,ugm-3,68.45077,R,ugm-3,,,,,,
11-01-2016,12:00,34.04194,R,ugm-3,33.44150,R,ugm-3,85.63840,R,ugm-3,,,,,,
11-01-2016,13:00,28.59778,R,ugm-3,36.84240,R,ugm-3,80.69172,R,ugm-3,,,,,,
11-01-2016,14:00,46.56358,R,ugm-3,45.61982,R,ugm-3,117.01631,R,ugm-3,,,,,,
11-01-2016,15:00,83.10386,R,ugm-3,77.52893,R,ugm-3,204.95306,R,ugm-3,,,,,,
11-01-2016,16:00,78.10749,R,ugm-3,76.94513,R,ugm-3,196.70828,R,ugm-3,,,,,,
11-01-2016,17:00,10.11966,R,ugm-3,47.43813,R,ugm-3,62.95472,R,ugm-3,,,,,,
11-01-2016,18:00,8.67840,R,ugm-3,46.65018,R,ugm-3,59.95688,R,ugm-3,,,,,,
11-01-2016,19:00,60.78280,R,ugm-3,68.53492,R,ugm-3,161.73391,R,ugm-3,,,,,,
11-01-2016,20:00,57.70821,R,ugm-3,59.65900,R,ugm-3,148.14368,R,ugm-3,,,,,,
11-01-2016,21:00,2.59407,R,ugm-3,22.80274,R,ugm-3,26.78026,R,ugm-3,,,,,,
11-01-2016,22:00,3.49057,R,ugm-3,23.07814,R,ugm-3,28.43027,R,ugm-3,,,,,,
11-01-2016,23:00,5.12391,R,ugm-3,29.81635,R,ugm-3,37.67290,R,ugm-3,,,,,,
11-01-2016,24:00,20.62379,R,ugm-3,40.92511,R,ugm-3,72.54782,R,ugm-3,,,,,,
12-01-2016,01:00,2.81848,R,ugm-3,19.59484,R,ugm-3,23.91645,R,ugm-3,,,,,,
12-01-2016,02:00,0.51223,R,ugm-3,6.14295,R,ugm-3,6.92835,R,ugm-3,,,,,,
12-01-2016,03:00,0.31993,R,ugm-3,3.75615,R,ugm-3,4.24671,R,ugm-3,,,,,,
12-01-2016,04:00,0.09635,R,ugm-3,3.30002,R,ugm-3,3.44776,R,ugm-3,,,,,,
12-01-2016,05:00,0.54445,R,ugm-3,5.86038,R,ugm-3,6.69518,R,ugm-3,,,,,,
12-01-2016,06:00,0.83289,R,ugm-3,9.76475,R,ugm-3,11.04182,R,ugm-3,,,,,,
12-01-2016,07:00,9.15924,R,ugm-3,27.07670,R,ugm-3,41.12066,R,ugm-3,,,,,,
12-01-2016,08:00,34.17010,R,ugm-3,51.93155,R,ugm-3,104.32496,R,ugm-3,,,,,,
12-01-2016,09:00,36.09156,R,ugm-3,54.43118,R,ugm-3,109.77081,R,ugm-3,,,,,,
12-01-2016,10:00,36.57208,R,ugm-3,55.09387,R,ugm-3,111.17028,R,ugm-3,,,,,,
12-01-2016,11:00,39.29400,R,ugm-3,58.71375,R,ugm-3,118.96372,R,ugm-3,,,,,,
12-01-2016,12:00,41.27939,R,ugm-3,51.92342,R,ugm-3,115.21761,R,ugm-3,,,,,,
12-01-2016,13:00,39.74241,R,ugm-3,48.43358,R,ugm-3,109.37109,R,ugm-3,,,,,,
12-01-2016,14:00,41.88776,R,ugm-3,56.73623,R,ugm-3,120.96323,R,ugm-3,,,,,,
12-01-2016,15:00,48.86921,R,ugm-3,48.92940,R,ugm-3,123.86115,R,ugm-3,,,,,,
12-01-2016,16:00,31.63995,R,ugm-3,41.67098,R,ugm-3,90.18489,R,ugm-3,,,,,,
12-01-2016,17:00,35.96340,R,ugm-3,41.08719,R,ugm-3,96.23031,R,ugm-3,,,,,,
12-01-2016,18:00,33.94558,R,ugm-3,45.48068,R,ugm-3,97.52985,R,ugm-3,,,,,,
12-01-2016,19:00,38.78168,R,ugm-3,41.61265,R,ugm-3,101.07706,R,ugm-3,,,,,,
12-01-2016,20:00,18.31785,R,ugm-3,28.12283,R,ugm-3,56.20981,R,ugm-3,,,,,,
12-01-2016,21:00,9.79941,R,ugm-3,16.35188,R,ugm-3,31.37743,R,ugm-3,,,,,,
12-01-2016,22:00,7.71798,R,ugm-3,13.74753,R,ugm-3,25.58160,R,ugm-3,,,,,,
12-01-2016,23:00,6.34065,R,ugm-3,13.26128,R,ugm-3,22.98347,R,ugm-3,,,,,,
12-01-2016,24:00,6.11676,R,ugm-3,12.70474,R,ugm-3,22.08364,R,ugm-3,,,,,,
13-01-2016,01:00,0.94046,R,ugm-3,6.01864,R,ugm-3,7.46066,R,ugm-3,,,,,,
13-01-2016,02:00,1.02528,R,ugm-3,3.89066,R,ugm-3,5.46274,R,ugm-3,,,,,,
13-01-2016,03:00,0.80139,R,ugm-3,3.36791,R,ugm-3,4.59669,R,ugm-3,,,,,,
13-01-2016,04:00,0.80108,R,ugm-3,4.66793,R,ugm-3,5.89624,R,ugm-3,,,,,,
13-01-2016,05:00,1.66671,R,ugm-3,8.03680,R,ugm-3,10.59238,R,ugm-3,,,,,,
13-01-2016,06:00,3.33341,R,ugm-3,9.62848,R,ugm-3,14.73964,R,ugm-3,,,,,,
13-01-2016,07:00,12.24537,R,ugm-3,25.39226,R,ugm-3,44.16823,R,ugm-3,,,,,,
13-01-2016,08:00,36.70367,R,ugm-3,50.34513,R,ugm-3,106.62331,R,ugm-3,,,,,,
13-01-2016,09:00,66.41935,R,ugm-3,77.72926,R,ugm-3,179.57084,R,ugm-3,,,,,,
13-01-2016,10:00,43.30750,R,ugm-3,48.01379,R,ugm-3,114.41770,R,ugm-3,,,,,,
13-01-2016,11:00,25.77265,R,ugm-3,36.97675,R,ugm-3,76.49426,R,ugm-3,,,,,,
13-01-2016,12:00,37.53718,R,ugm-3,49.06710,R,ugm-3,106.62331,R,ugm-3,,,,,,
13-01-2016,13:00,42.47368,R,ugm-3,45.79481,R,ugm-3,110.92022,R,ugm-3,,,,,,
13-01-2016,14:00,52.37880,R,ugm-3,55.23969,R,ugm-3,135.55274,R,ugm-3,,,,,,
13-01-2016,15:00,68.66324,R,ugm-3,66.64441,R,ugm-3,171.92658,R,ugm-3,,,,,,
13-01-2016,16:00,99.78961,R,ugm-3,88.86718,R,ugm-3,241.87579,R,ugm-3,,,,,,
13-01-2016,17:00,145.43643,R,ugm-3,94.47224,R,ugm-3,317.47165,R,ugm-3,,,,,,
13-01-2016,18:00,107.83501,R,ugm-3,83.72590,R,ugm-3,249.07061,R,ugm-3,,,,,,
13-01-2016,19:00,89.65935,R,ugm-3,76.32070,R,ugm-3,213.79646,R,ugm-3,,,,,,
13-01-2016,20:00,78.66409,R,ugm-3,73.79381,R,ugm-3,194.41041,R,ugm-3,,,,,,
13-01-2016,21:00,70.07363,R,ugm-3,66.63007,R,ugm-3,174.07479,R,ugm-3,,,,,,
13-01-2016,22:00,51.25686,R,ugm-3,56.16104,R,ugm-3,134.75379,R,ugm-3,,,,,,
13-01-2016,23:00,32.18377,R,ugm-3,46.78358,R,ugm-3,96.13133,R,ugm-3,,,,,,
13-01-2016,24:00,22.69525,R,ugm-3,38.59855,R,ugm-3,73.39745,R,ugm-3,,,,,,
14-01-2016,01:00,10.34344,R,ugm-3,26.90951,R,ugm-3,42.76924,R,ugm-3,,,,,,
14-01-2016,02:00,5.51348,R,ugm-3,16.46153,R,ugm-3,24.91541,R,ugm-3,,,,,,
14-01-2016,03:00,2.11542,R,ugm-3,12.84531,R,ugm-3,16.08891,R,ugm-3,,,,,,
14-01-2016,04:00,15.64333,R,ugm-3,16.53452,R,ugm-3,40.52062,R,ugm-3,,,,,,
14-01-2016,05:00,10.54655,R,ugm-3,18.25433,R,ugm-3,34.42548,R,ugm-3,,,,,,
14-01-2016,06:00,23.65723,R,ugm-3,33.82543,R,ugm-3,70.09934,R,ugm-3,,,,,,
14-01-2016,07:00,38.14618,R,ugm-3,46.68508,R,ugm-3,105.17507,R,ugm-3,,,,,,
14-01-2016,08:00,157.39305,R,ugm-3,91.02878,R,ugm-3,332.36142,R,ugm-3,,,,,,
14-01-2016,09:00,89.40335,R,ugm-3,83.15837,R,ugm-3,220.24159,R,ugm-3,,,,,,